www.pogodaiklimat.ru

Погода и климат >> Архив погоды >> Россия >> Ростовская область >> Чертково


АРХИВ ПОГОДЫ в Чертково

Время (UTC), дата Ветер
(напр.,м/с)
 
Видим.   Явления Облачность Т
(С)
Тd
(С)
f
(%)
Тe
(С)
Тes
(С)
Комфортность P
(гПа)
Po
(гПа)
Тmin
(С)
Tmax
(С)
R
(мм)
R24
(мм)
S
(см)
00 15.09 штиль 0 20 км {ливн. осадки} 10/10 600 м
[Cb cap]
+13.2 +11.1 87 +13 +13 1020.2 1002.7
03 15.09 штиль 0 20 км 3/3 600 м
[Cb cap]
+9.6 +8.1 90 +9 +9 1020.9 1003.1 +9.6 0.8
06 15.09 штиль 0 20 км 3/0
[Ci fib]
+14.6 +7.9 64 +14 +20 1021.7 1004.2 +9.5
09 15.09 СЗ 3 20 км 4/4 600 м
[Cu hum]
+18.5 +2.0 33 +19 +24 1021.0 1003.7
12 15.09 СЗ 3 20 км 6/3 600 м
[Cu hum Ci fib]
+19.8 +1.0 28 +20 +23 1020.0 1002.9
15 15.09 штиль 0 20 км 9/3 600 м
[Cu hum Ci fib]
+17.6 +1.8 35 +18 +18 1019.6 1002.3 +19.9
18 15.09 штиль 0 20 км 4/0
[Ci fib]
+11.6 +3.5 58 +11 +11 1020.0 1002.4
21 15.09 штиль 0 20 км ясно +9.2 +2.7 64 +9 +9 1019.4 1001.6
00 16.09 штиль 0 20 км ясно +10.2 +0.9 52 +10 +10 1018.1 1000.4
03 16.09 Ю 3 20 км 1/0
[Ci fib]
+9.9 +0.9 53 +8 +8 1017.0 999.3 +8.5
06 16.09 ЮЗ 3 20 км ясно +15.9 +2.3 40 +16 +19 1015.0 997.7
09 16.09 ЮЗ 4
{11}
20 км ясно +22.0 +1.4 26 +22 +28 комфорт 1012.1 995.2
12 16.09 З 4-10
{10}
20 км 4/0
[Ci]
+23.9 -1.7 18 +22 +26 комфорт 1009.2 992.4
15 16.09 ЮЗ 1
{11}
20 км 3/0
[Cc]
+22.6 -0.4 22 +22 +22 комфорт 1008.3 991.5 +24.5
18 16.09 ЮЗ 2 20 км 10/0
[Ci sp]
+18.1 +0.3 30 +19 +19 1008.5 991.4
21 16.09 ЮЗ 1 20 км 9/0
[Ac trans]
+17.1 +2.7 38 +18 +18 1007.7 990.6
00 17.09 штиль 0 20 км 10/10 600 м
[Cb cap]
+15.3 +4.0 47 +15 +15 1007.2 990.0
03 17.09 штиль 0 20 км 10/10 600 м
[Cb cap]
+15.1 +5.1 51 +15 +15 1006.7 989.5 +13.8
06 17.09 ЮЗ 1 20 км 9/3 600 м
[Cb cap Ac As]
+17.2 +7.7 54 +18 +20 1006.3 989.3
09 17.09 З 3 20 км 10/10 600 м
[Cb cap]
+22.4 +3.7 29 +22 +22 комфорт 1005.5 988.7
12 17.09 З 3
{10}
20 км слаб. ливневой дождь 10/10 600 м
[Cb cap]
+18.9 +5.1 40 +19 +19 1006.3 989.3
15 17.09 ЮЗ 2 20 км {ливн. осадки} 9/9 600 м
[Cb cap]
+14.7 +9.8 72 +14 +14 1006.3 989.1 +23.0
18 17.09 ЮЗ 2 20 км {ливн. осадки} 3/0 600 м
[]
+12.1 +9.1 82 +11 +11 1007.8 990.4
21 17.09 штиль 0 20 км ясно +9.9 +8.0 88 +9 +9 1008.2 990.7
00 18.09 штиль 0 20 км ясно +8.9 +7.4 90 +8 +8 1007.8 990.2
03 18.09 ЮЗ 1 10 км 3/3 600 м
[Cb cap]
+8.7 +7.4 92 +8 +8 1007.3 989.7 +8.4
06 18.09 Ю 3 20 км 3/0
[Ci fib]
+13.1 +9.3 78 +12 +15 1006.5 989.2
09 18.09 ЮЗ 3 20 км слаб. ливневой дождь 10/10 600 м
[Cb cap]
+16.4 +7.9 57 +16 +16 1004.9 987.9
12 18.09 штиль 0 10 км слаб. ливневой дождь 10/10 600 м
[Cb cap]
+11.6 +9.9 89 +11 +11 1003.2 985.9
15 18.09 ЮЗ 2 20 км {ливн. осадки} 9/4 600 м
[Cb cap Cc]
+13.3 +10.3 82 +13 +13 1003.2 986.0 +18.1 6
18 18.09 З 3 20 км {ливн. осадки} ясно +11.0 +3.8 61 +9 +9 1005.9 988.5
21 18.09 ЮЗ 2 20 км ясно +8.4 +2.0 64 +7 +7 1008.3 990.7
00 19.09 ЮЗ 1 20 км ясно +6.3 +2.3 76 +5 +5 1010.4 992.6
03 19.09 З 4 20 км 1/0
[Ac lent]
+6.7 +2.6 75 +3 +3 1012.6 994.8 +5.9 0.3
06 19.09 З 4 20 км 10/10 600 м
[Cb cap]
+8.0 +3.6 74 +5 +5 1015.7 997.9
09 19.09 З 3 20 км 10/10 600 м
[Cb cap]
+10.3 +4.5 67 +8 +8 1017.3 999.6
12 19.09 З 2 20 км 10/10 600 м
[Cb cap]
+12.2 +5.2 62 +11 +11 1017.6 1000.0
15 19.09 штиль 0 20 км 3/3 600 м
[Sc]
+12.8 +4.4 57 +13 +13 1017.7 1000.1 +13.5
18 19.09 штиль 0 20 км ясно +9.0 +4.3 72 +8 +8 1018.4 1000.6
21 19.09 штиль 0 20 км {ливн. осадки} 6/6 600 м
[Cb cap]
+8.7 +4.6 75 +8 +8 1017.9 1000.1
00 20.09 штиль 0 20 км {ливн. осадки} 4/4 600 м
[Cb cap]
+6.9 +4.3 83 +6 +6 1018.5 1000.6
03 20.09 штиль 0 20 км 3/0
[Ci fib]
+5.5 +3.9 89 +4 +4 1018.1 1000.1 +5.3
06 20.09 штиль 0 20 км 6/0
[Ci fib]
+9.9 +5.2 73 +9 +14 1018.1 1000.4
09 20.09 З 1 20 км 8/3 600 м
[Cb cap Ci fib]
+13.7 +3.6 50 +14 +21 1016.6 999.1
12 20.09 З 1 20 км 9/6 600 м
[Cb cap Ci fib]
+14.8 +1.7 41 +16 +18 1015.1 997.8
15 20.09 штиль 0 20 км 10/10 600 м
[Cb cap]
+12.9 +2.7 50 +13 +13 1014.8 997.3 +15.6
18 20.09 штиль 0 20 км 10/10 600 м
[Cb cap]
+12.9 +2.7 50 +13 +13 1014.8 997.6
21 20.09 штиль 0 20 км 8/8 600 м
[Cb cap]
+7.4 +3.3 75 +7 +7 1015.4 997.6
00 21.09 штиль 0 20 км 6/6 600 м
[Cb cap]
+7.7 +4.4 80 +7 +7 1015.1 997.3
03 21.09 штиль 0 20 км {ливн. осадки} 10/10 600 м
[Cb cap]
+6.2 +5.1 93 +5 +5 1015.2 997.3 +5.7 2
06 21.09 штиль 0 20 км {ливн. осадки} 3/0
[Ac trans]
+10.1 +6.3 77 +10 +14 1015.2 997.6
09 21.09 СЗ 2 20 км слаб. ливневой дождь 9/9 600 м
[Cb cap]
+11.8 +4.5 61 +11 +12 1015.0 997.4
12 21.09 З 2 20 км в посл. час ливневой дождь 10/8 600 м
[Cb cap Ci fib]
+12.9 +5.2 59 +12 +13 1014.8 997.4
15 21.09 З 4 20 км слаб. ливневой дождь 10/10 600 м
[Cb cap]
+9.0 +3.8 70 +6 +6 1015.6 997.9 +13.8 2
18 21.09 штиль 0 20 км {ливн. осадки} 10/0
[Ci fib]
+7.3 +3.8 78 +7 +7 1016.7 998.8
21 21.09 штиль 0 20 км ясно +5.9 +3.1 82 +5 +5 1016.7 998.8

 

Местоположение метеостанции Чертково (Ростовская область, Россия): широта 49.38 долгота 40.17 высота над уровнем моря 145 м.

В архиве по умолчанию представлена погода в Чертково за последнюю неделю. Архивные данные за месяц целиком и за предыдущие месяцы, начиная с января 2011 года, Вы можете получить, выбрав интересующий диапазон дат из раскрывающегося списка и нажав кнопку "Ввод!".


*Определитесь, кто Вы:
робот инопланетянин человек

Внимание! Время в таблицах - всемирное. Для получения местного времени необходимо прибавить поправку, которая равна 3 ч.

Смотрите также архив погоды в соседних городах и на ближайших метеорологических станциях:

Погода в Беловодске (Луганская область, Украина) (46 км)
Погода в Миллерово (Ростовская область, Россия) (52 км)
Погода в Богучаре (Воронежская область, Россия) (68 км)
Погода в Казанской (Ростовская область, Россия) (85 км)
Погода в Павловск (Воронежская область, Россия) (119 км)
Погода в Каменск-Шахтинском (Ростовская область, Россия) (121 км)
Погода в Боковской (Ростовская область, Россия) (122 км)
Погода в Калаче (Воронежская область, Россия) (132 км)
Погода в Белой Калитве (Ростовская область, Россия) (136 км)
Погода в Сватово (Луганская область, Украина) (145 км)

Пояснения к столбцам:

Ветер - указаны скорость ветра в м/с - средняя за 10 мин, порывы в срок и между сроками (в фигурных скобках) и направление, откуда дует ветер: С - северный, СВ - северо-восточный, В - восточный, ЮВ - юго-восточный, Ю - южный, ЮЗ - юго-западный, З - западный, СЗ - северо-западный.
Видимость - горизонтальная дальность видимости в метрах или километрах. При видимости от 1 до 10 км при отсутствии осадков обычно наблюдается дымка, при ухудшении видимости до 1 км и менее - туман. В сухую погоду видимость может ухудшаться дымом, пылью или мглою.
Явления - указаны атмосферные явления, наблюдавшиеся в срок или в последний час перед сроком; фигурными скобками обозначены явления, наблюдавшиеся между сроками (за 1-3 часа до срока); квадратными скобками обозначены град или гололедные отложения с указанием их диаметра в мм.
Облачность - указаны через наклонную черту общая и нижняя облачность в баллах и высота нижней границы облаков в метрах; квадратными скобками обозначены формы облаков: Ci - перистые, Cs - перисто-слоистые, Cc - перисто-кучевые, Ac - высококучевые, As - высокослоистые, Sc - слоисто-кучевые, Ns - слоисто-дождевые, Cu - кучевые, Cb - кучево-дождевые. Подробнее классификацию облаков см. в Атласе облаков (PDF).
T - Температура воздуха - температура, измеренная на высоте 2 м над землей.
Td - Температура точки росы - температура, при понижении до которой содержащийся в воздухе водяной пар достигнет насыщения.
f - Относительная влажность воздуха - влажноcть воздуха, измеренная на высоте 2 м над землей.
Te - Эффективная температура - температура, которую ощущает одетый по сезону человек в тени. Характеристика душности погоды. При расчете учитывается влияние влажности воздуха и скорости ветра на теплоощущения человека.
Tes - Эффективная температура на солнце - температура, которую ощущает человек, с поправкой на солнечный нагрев. Характеристика знойности погоды. Зависит от высоты солнца над горизонтом, облачности и скорости ветра. Ночью, в пасмурную погоду, а также при ветре 12 м/с и более поправка равна нулю.
P - Атмосферное давление - приведенное к уровню моря атмосферное давление.
Po - Атмосферное давление - измеренное на уровне метеостанции атмосферное давление.
Tmin - Минимальная температура - минимум температуры воздуха на высоте 2 м над землей.
Tmax - Максимальная температура - максимум температуры воздуха на высоте 2 м над землей.
R - Количество осадков - Количество выпавших осадков за период времени, мм. При наведении курсора мыши на число - период времени, за который выпало указанное количество осадков.
R24 - Количество осадков - Количество выпавших осадков за 24 часа, мм.
S - Снежный покров - Высота снежного покрова, см. При наведении курсора мыши на число - состояние снежного покрова и степень покрытия местности в баллах.